Regional Weather Roundup
Issued by NWS State College, PA

Home | Current Version | Previous Version | Text Only | Print | Product List | Glossary Off
Versions: 1 2 3 4 5 6 7 8 9 10 11 12 13 14 15 16 17 18 19 20 21 22 23 24 25 26 27 28 29 30 31 32 33 34 35 36 37 38 39 40 41 42 43 44 45 46 47 48 49 50

000
ASUS41 KCTP 280410
RWRCTP

REGIONAL WEATHER ROUNDUP
NATIONAL WEATHER SERVICE STATE COLLEGE PA
1100 PM EST MON FEB 27 2017

Note: "fair" indicates few or no clouds below 12,000 feet with no
significant weather and/or obstructions to visibility.

* = STATION THAT DOES NOT REPORT PRECIPITATION /E.G. RAIN...SNOW...ETC/
    THUNDER OR FOG.

PAZ002>004-007>009-013>016-020>023-029>032-280500-
WESTERN PENNSYLVANIA

CITY           SKY/WX    TMP DP  RH WIND       PRES   REMARKS
ERIE           CLEAR     41  33  73 S12       30.24F
MEADVILLE      CLOUDY    40  34  79 VRB3      30.23F
FRANKLIN*      CLOUDY    39  34  81 S6        30.27S
NEW CASTLE     CLOUDY    40  37  89 CALM      30.26F
BEAVER COUNTY  NOT AVBL
BUTLER*        CLOUDY    39  36  87 CALM      30.27F
PITTSBURGH INT MOCLDY    39  39 100 CALM      30.26F
PITTSBURGH     CLOUDY    41  37  86 SE6       30.26F
INDIANA*       CLOUDY    41  39  93 E3        30.30F
LATROBE        CLOUDY    37  37 100 CALM      30.28F FOG
WASHINGTON CO* MOCLDY    36  34  93 CALM      30.28S VSB 1
$$

PAZ004>006-010>012-017>019-024>028-033>037-041-042-045-046-049>053-280500-
CENTRAL PENNSYLVANIA

CITY           SKY/WX    TMP DP  RH WIND       PRES   REMARKS
BRADFORD       CLOUDY    37  34  89 S5        30.25F
DUBOIS         CLOUDY    39  34  82 CALM      30.26F
CLEARFIELD       N/A    N/A N/A N/A MISG      30.29F
JOHNSTOWN      CLOUDY    39  34  82 S5        30.26F
ALTOONA        CLOUDY    39  36  89 CALM      30.30F
STATE COLLEGE  CLOUDY    39  35  86 CALM      30.31F
WILLIAMSPORT   CLOUDY    43  34  70 N5        30.34S
SELINSGROVE    MOCLDY    36  34  92 CALM      30.36S
FT INDIANTOWN  CLOUDY    36  36  99 CALM      30.36F
CAPITAL CITY   CLOUDY    43  33  68 SE3       30.35F
HARRISBURG     MOCLDY    41  35  79 CALM      30.35F
YORK           MOCLDY    37  30  75 CALM      30.35F
$$

PAZ038>040-043-044-047-048-054-055-060>062-067>071-280500-
EASTERN PENNSYLVANIA

CITY           SKY/WX    TMP DP  RH WIND       PRES   REMARKS
SCRANTON       CLOUDY    42  31  64 CALM      30.33F
MOUNT POCONO   CLOUDY    37  31  78 SW3       30.32S
ALLENTOWN      MOCLDY    41  33  73 CALM      30.38F
QUAKERTOWN*    CLOUDY    34  32  93 CALM      30.38F
READING        CLOUDY    38  36  92 CALM      30.37F
LANCASTER      PTCLDY    40  33  76 E6        30.36F
COATESVILLE    PTCLDY    45  28  53 CALM      30.38F
POTTSTOWN      CLOUDY    40  30  67 CALM      30.39F
BLUE BELL      CLOUDY    39  32  75 CALM      30.38S
DOYLESTOWN     CLEAR     38  32  79 CALM      30.37F
WILLOW GROVE   NOT AVBL
NORTH PHILA    CLOUDY    47  31  53 CALM      30.40F
PHILADELPHIA   CLOUDY    47  31  53 SE5       30.40F
$$




USA.gov is the U.S. government's official web portal to all federal, state and local government web resources and services.